www.pogodaiklimat.ru

ПОГОДА в Мосби, MO

  • Прогноз погоды в Мосби
  • Монитор погоды в Мосби
  • Климат в Мосби

АРХИВ ПОГОДЫ в Мосби

Время (UTC), дата Ветер
(напр.,м/с)
 
Видим.   Явления Облачность Т
(С)
Тd
(С)
f
(%)
Тe
(С)
Тes
(С)
Комфортность

P
(гПа)

Po
(гПа)
Тmin
(С)
Tmax
(С)
R
(мм)
SD
(см)
20:15 21.08   16 км    ясно  +26.0  +20.0  70  +32  +47  очень
душно 
  987.6         
20:35 21.08   16 км    ясно  +25.0  +21.0  78  +31  +46  очень
душно 
  987.6         
20:55 21.08   16 км    ясно  +26.0  +21.0  74  +33  +48  очень
душно 
  987.6         
21:15 21.08   16 км    ясно  +26.0  +21.0  74  +33  +42  очень
душно 
  987.6         
21:35 21.08   16 км    ясно  +26.0  +20.0  70  +32  +41  очень
душно 
  987.2         
21:55 21.08   16 км    ясно  +26.0  +21.0  74  +33  +42  очень
душно 
  987.2         
22:15 21.08   16 км    ясно  +26.0  +20.0  70  +32  +36  очень
душно 
  987.2         
22:35 21.08   16 км    5/0 3600 м
[средняя] 
+26.0  +21.0  74  +33  +36  очень
душно 
  986.9         
22:55 21.08   16 км    5/0 3600 м
[средняя] 
+26.0  +21.0  74  +33  +36  очень
душно 
  986.9         
23:15 21.08   16 км    5/0 3600 м
[средняя] 
+26.0  +21.0  74  +33  +33  очень
душно 
  987.2         
23:35 21.08   16 км    ясно  +25.0  +21.0  78  +31  +32  очень
душно 
  987.6         
23:55 21.08   16 км    ясно  +25.0  +21.0  78  +31  +32  очень
душно 
  987.6         
00:15 22.08   16 км  слабый дождь  5/0 3000 м
[средняя] 
+25.0  +21.0  78  +31  +31  очень
душно 
  987.2         
00:35 22.08   16 км    5/0 3600 м
[средняя] 
+24.0  +22.0  89  +31  +31  очень
душно 
  986.9         
00:55 22.08   16 км    10/0 3600 м
[средняя] 
+24.0  +22.0  89  +31  +31  очень
душно 
  986.6         
01:15 22.08   16 км    8/0 3300 м
[средняя] 
+24.0  +22.0  89  +31  +31  очень
душно 
  986.6         
01:35 22.08   16 км    8/5 1200 м
[средняя] 
+24.0  +22.0  89  +31  +31  очень
душно 
  986.9         
01:55 22.08   16 км  слабый дождь  8/5 1200 м
[средняя] 
+24.0  +22.0  89  +31  +31  очень
душно 
  987.2         
02:15 22.08   16 км    8/5 1140 м
[средняя] 
+23.0  +21.0  89  +31  +31  очень
душно 
  987.9         
02:35 22.08   16 км  слабый дождь  8/5 390 м
[средняя] 
+23.0  +20.0  83  +30  +30  очень
душно 
  987.2         
02:55 22.08   16 км    8/5 330 м
[средняя] 
+22.0  +20.0  88  +28  +28  душно    987.9         
03:15 22.08   16 км  дождь  8/5 1440 м
[средняя] 
+22.0  +21.0  94  +28  +28  душно    987.9         
03:35 22.08   16 км  слабая морось  5/5 1440 м
[средняя] 
+22.0  +21.0  94  +28  +28  душно    988.2         
03:55 22.08   16 км  гроза  5/5 240 м
[средняя] 
+22.0  +21.0  94  +28  +28  душно    988.2         
04:15 22.08   16 км    8/8 240 м  +22.0  +21.0  94  +28  +28  душно    988.2         
04:35 22.08 СВ  16 км    10/10 240 м  +22.0  +21.0  94  +28  +28  душно    988.2         
05:35 22.08 В  16 км    10/5 1500 м
[средняя] 
+22.0  +20.0  88  +28  +28  душно    987.6         
06:15 22.08 СВ  16 км    10/5 360 м
[средняя] 
+21.0  +20.0  94  +26  +26  душно    987.2         
06:35 22.08   16 км    8/8 1350 м
[средняя] 
+21.0  +20.0  94  +26  +26  душно    987.9         
07:15 22.08   16 км    10/10 1290 м  +21.0  +20.0  94  +26  +26  душно    987.6         
07:35 22.08   16 км  гроза  10/10 1290 м  +21.0  +20.0  94  +26  +26  душно    987.2         
07:55 22.08   16 км    10/10 1290 м  +21.0  +20.0  94  +26  +26  душно    987.2         
08:15 22.08   16 км    10/10 1230 м  +21.0  +20.0  94  +26  +26  душно    987.2         
08:35 22.08   16 км    10/10 1170 м  +21.0  +20.0  94  +26  +26  душно    987.2         
08:55 22.08   16 км    10/10 930 м  +21.0  +20.0  94  +26  +26  душно    987.2         
09:15 22.08   16 км    10/10 990 м  +21.0  +20.0  94  +26  +26  душно    987.2         
09:35 22.08   16 км  дождь  8/8 870 м  +21.0  +20.0  94  +26  +26  душно    987.2         
09:55 22.08   16 км    5/5 870 м  +21.0  +20.0  94  +26  +26  душно    986.9         
10:15 22.08   16 км    5/5 1230 м  +21.0  +20.0  94  +26  +26  душно    987.2         
10:35 22.08   16 км    8/8 210 м  +21.0  +20.0  94  +26  +26  душно    987.2         
10:55 22.08   16 км    10/10 210 м  +21.0  +20.0  94  +26  +26  душно    987.6         
11:15 22.08   16 км    10/10 210 м  +21.0  +20.0  94  +26  +26  душно    987.9         
11:35 22.08   16 км    10/10 210 м  +21.0  +20.0  94  +26  +26  душно    987.9         
11:55 22.08   16 км    10/10 210 м  +21.0  +20.0  94  +26  +26  душно    987.9         
12:15 22.08   16 км    8/8 210 м
[средняя] 
+21.0  +20.0  94  +26  +26  душно    987.9         
12:35 22.08   16 км    10/10 210 м  +21.0  +20.0  94  +26  +26  душно    988.2         
12:55 22.08   16 км    10/10 210 м  +21.0  +20.0  94  +26  +26  душно    987.9         
13:15 22.08   16 км    10/10 150 м  +21.0  +20.0  94  +26  +26  душно    988.2         

 

Местоположение метеостанции Midwest National Air Center Airport: широта 39.3300 долгота -94.3100 высота над уровнем моря 237 м.

В архиве по умолчанию представлена погода в Мосби за последние 1-2 суток. Обновление информации о фактической погоде в базе происходит ежечасно! Архивные данные за месяц целиком и за предыдущие месяцы Вы можете получить, выбрав интересующий диапазон дат из раскрывающегося списка и нажав кнопку "Ввод!".

Внимание! Архив погоды МЕТАР в базе сайта хранится не более 60 дней. Нет смысла пытаться выбрать более раннюю дату.

Внимание! Время в таблицах - всемирное. Для получения местного времени необходимо прибавить поправку, которая в Мосби равна -6 ч.

Ветер - указаны скорость ветра в м/с и направление, откуда дует ветер: С - северный, СВ - северо-восточный, В - восточный, ЮВ - юго-восточный, Ю - южный, ЮЗ - юго-западный, З - западный, СЗ - северо-западный.
Видимость - горизонтальная дальность видимости в метрах или километрах. При видимости от 1 до 10 км при отсутствии осадков обычно наблюдается дымка, при ухудшении видимости до 1 км и менее - туман. В сухую погоду видимость может ухудшаться дымом, пылью или мглою.
Атмосферные явления - указаны явления, наблюдавшиеся в указанный момент времени.
Облачность - указаны через наклонную черту верхняя и нижняя облачность в баллах и высота нижней границы облаков в метрах. Внимание: облачность, как и прочие метеорологические величины в США измеряются автоматическими метеостанциями. Указанные значения в баллах носят условный характер и показывают процент времени, в течение которого, в среднем, лазерный луч высотомера отражался от облаков обратно.
T - Температура воздуха - температура, измеренная на высоте 2 м над землей.
Td - Температура точки росы - температура, при понижении до которой содержащийся в воздухе водяной пар достигнет насыщения.
f - Относительная влажность воздуха - влажноcть воздуха, измеренная на высоте 2 м над землей.
Te - Эффективная температура - температура, которую ощущает одетый по сезону человек в тени. Характеристика душности погоды. При расчете учитывается влияние влажности воздуха и скорости ветра на теплоощущения человека.
Tes - Эффективная температура на солнце - температура, которую ощущает человек, с поправкой на солнечный нагрев. Характеристика знойности погоды. Зависит от высоты солнца над горизонтом, облачности и скорости ветра. Ночью, в пасмурную погоду, а также при ветре 12 м/с и более поправка равна нулю.
P - Атмосферное давление - приведенное к уровню моря атмосферное давление.
Po - Атмосферное давление - измеренное на уровне метеостанции атмосферное давление.
Tmin - Минимальная температура - минимум температуры воздуха на высоте 2 м над землей.
Tmax - Максимальная температура - максимум температуры воздуха на высоте 2 м над землей.
R - Количество осадков - Количество выпавших осадков за 3 или 6 часов, мм.
SD - Снежный покров - Высота снежного покрова, см.